When you browse on this site, cookies collect data to enhance your experience and personalize the content and advertising you see.
Visit our Privacy Policy to learn more. By continuing to use the site, you agree to this use of cookies and data.
  • In France
  • List of Countries
  • For 7 days
  • Water Temperature
  • Weather Map
  • Weather Widgets
  • user-avatar
    Login

    Hourly Weather Podwilczyn

    Today, 15 October, Tuesday

    Time Temperature Precipitation Wind Pressure Humidity
    00:00 +10°C° 0 mm 2 mps 751 mmHg 85%
    01:00 +10°C° 0 mm 2 mps 751 mmHg 84%
    02:00 +10°C° 0 mm 3 mps 751 mmHg 83%
    03:00 +10°C° 0 mm 3 mps 750 mmHg 82%
    04:00 +10°C° 0 mm 3 mps 750 mmHg 81%
    05:00 +10°C° 0 mm 4 mps 750 mmHg 81%
    06:00 +11°C° 0 mm 4 mps 750 mmHg 81%
    07:00 +10°C° 0 mm 5 mps 749 mmHg 81%
    08:00 +12°C° 0 mm 5 mps 749 mmHg 79%
    09:00 +14°C° 0 mm 4 mps 748 mmHg 76%
    10:00 +17°C° 0 mm 4 mps 748 mmHg 74%
    11:00 +18°C° 0 mm 4 mps 747 mmHg 71%
    12:00 +19°C° 0 mm 4 mps 747 mmHg 68%
    13:00 +20°C° 0 mm 4 mps 747 mmHg 65%
    14:00 +19°C° 0 mm 4 mps 746 mmHg 67%
    15:00 +19°C° 0 mm 3 mps 746 mmHg 69%
    16:00 +18°C° 0 mm 3 mps 745 mmHg 71%
    17:00 +17°C° 0 mm 3 mps 745 mmHg 74%
    18:00 +16°C° 0 mm 3 mps 745 mmHg 78%
    19:00 +14°C° 0 mm 3 mps 744 mmHg 81%
    20:00 +14°C° 0 mm 3 mps 744 mmHg 82%
    21:00 +14°C° 0 mm 3 mps 744 mmHg 83%
    22:00 +13°C° 0 mm 3 mps 744 mmHg 85%
    23:00 +13°C° 0 mm 3 mps 744 mmHg 84%

    Tomorrow, 16 October, Wednesday

    Time Temperature Precipitation Wind Pressure Humidity
    00:00 +13°C° 0 mm 3 mps 744 mmHg 83%
    01:00 +13°C° 0 mm 3 mps 743 mmHg 82%
    02:00 +13°C° 0 mm 3 mps 743 mmHg 82%
    03:00 +13°C° 0 mm 3 mps 742 mmHg 82%
    04:00 +12°C° 0 mm 3 mps 742 mmHg 82%
    05:00 +12°C° 0 mm 3 mps 742 mmHg 84%
    06:00 +12°C° 0 mm 3 mps 742 mmHg 85%
    07:00 +12°C° 0 mm 3 mps 741 mmHg 87%
    08:00 +13°C° 0 mm 4 mps 742 mmHg 85%
    09:00 +14°C° 0 mm 5 mps 742 mmHg 83%
    10:00 +15°C° 0 mm 5 mps 743 mmHg 81%
    11:00 +14°C° 0.1 mm 6 mps 743 mmHg 80%
    12:00 +12°C° 0.1 mm 7 mps 743 mmHg 78%
    13:00 +12°C° 0.1 mm 8 mps 744 mmHg 77%
    14:00 +12°C° 0 mm 7 mps 744 mmHg 74%
    15:00 +12°C° 0 mm 7 mps 744 mmHg 71%
    16:00 +13°C° 0 mm 6 mps 744 mmHg 68%
    17:00 +11°C° 0.2 mm 7 mps 744 mmHg 71%
    18:00 +11°C° 0.2 mm 7 mps 744 mmHg 74%
    19:00 +10°C° 0.2 mm 7 mps 743 mmHg 78%
    20:00 +10°C° 2.9 mm 8 mps 743 mmHg 82%
    21:00 +10°C° 2.9 mm 9 mps 743 mmHg 86%
    22:00 +9°C° 2.9 mm 10 mps 743 mmHg 90%
    23:00 +11°C° 3.8 mm 10 mps 743 mmHg 90%

    Day after tomorrow, 17 October, Thursday

    Time Temperature Precipitation Wind Pressure Humidity
    00:00 +11°C° 3.8 mm 10 mps 743 mmHg 91%
    01:00 +11°C° 3.8 mm 10 mps 744 mmHg 91%
    02:00 +11°C° 0.8 mm 9 mps 744 mmHg 91%
    03:00 +11°C° 0.8 mm 9 mps 745 mmHg 91%
    04:00 +11°C° 0.8 mm 8 mps 746 mmHg 91%
    05:00 +11°C° 0.2 mm 7 mps 746 mmHg 91%
    06:00 +11°C° 0.2 mm 7 mps 747 mmHg 91%
    07:00 +10°C° 0.2 mm 6 mps 748 mmHg 91%
    08:00 +12°C° 0 mm 5 mps 748 mmHg 90%
    09:00 +12°C° 0 mm 5 mps 749 mmHg 89%
    10:00 +12°C° 0 mm 4 mps 749 mmHg 89%
    11:00 +12°C° 0 mm 4 mps 750 mmHg 88%
    12:00 +12°C° 0 mm 3 mps 750 mmHg 87%
    13:00 +13°C° 0 mm 3 mps 750 mmHg 86%
    14:00 +14°C° 0 mm 2 mps 750 mmHg 86%
    15:00 +14°C° 0 mm 2 mps 750 mmHg 85%
    16:00 +14°C° 0 mm 1 mps 750 mmHg 85%
    17:00 +14°C° 0 mm 2 mps 751 mmHg 86%
    18:00 +14°C° 0 mm 2 mps 751 mmHg 87%
    19:00 +13°C° 0 mm 2 mps 751 mmHg 87%
    20:00 +13°C° 0 mm 2 mps 751 mmHg 86%
    21:00 +13°C° 0 mm 2 mps 751 mmHg 85%
    22:00 +13°C° 0 mm 2 mps 751 mmHg 84%
    23:00 +13°C° 0 mm 2 mps 751 mmHg 86%

    18 October, Friday

    Time Temperature Precipitation Wind Pressure Humidity
    00:00 +12°C° 0 mm 2 mps 751 mmHg 88%
    01:00 +10°C° 0 mm 2 mps 751 mmHg 90%
    02:00 +10°C° 0 mm 2 mps 751 mmHg 90%
    03:00 +10°C° 0 mm 2 mps 752 mmHg 91%
    04:00 +10°C° 0 mm 2 mps 752 mmHg 91%
    05:00 +11°C° 0.1 mm 1 mps 752 mmHg 92%
    06:00 +11°C° 0.1 mm 1 mps 752 mmHg 92%
    07:00 +12°C° 0.1 mm 1 mps 752 mmHg 93%
    08:00 +12°C° 0 mm 1 mps 752 mmHg 89%
    09:00 +13°C° 0 mm 1 mps 752 mmHg 86%
    10:00 +14°C° 0 mm 1 mps 753 mmHg 83%
    11:00 +15°C° 0 mm 1 mps 752 mmHg 79%
    12:00 +15°C° 0 mm 2 mps 752 mmHg 75%
    13:00 +16°C° 0 mm 2 mps 752 mmHg 71%
    14:00 +16°C° 0 mm 2 mps 752 mmHg 73%
    15:00 +15°C° 0 mm 1 mps 752 mmHg 75%
    16:00 +15°C° 0 mm 1 mps 752 mmHg 77%
    17:00 +14°C° 0 mm 2 mps 752 mmHg 78%
    18:00 +13°C° 0 mm 2 mps 752 mmHg 79%
    19:00 +12°C° 0 mm 2 mps 752 mmHg 80%
    20:00 +13°C° 0 mm 2 mps 752 mmHg 78%
    21:00 +13°C° 0 mm 2 mps 752 mmHg 77%
    22:00 +12°C° 0 mm 3 mps 752 mmHg 75%
    23:00 +12°C° 0 mm 3 mps 752 mmHg 76%

    19 October, Saturday

    Time Temperature Precipitation Wind Pressure Humidity
    00:00 +12°C° 0 mm 3 mps 752 mmHg 76%
    01:00 +12°C° 0 mm 3 mps 752 mmHg 77%
    02:00 +12°C° 0 mm 3 mps 752 mmHg 77%
    03:00 +12°C° 0 mm 3 mps 752 mmHg 78%
    04:00 +12°C° 0 mm 3 mps 752 mmHg 79%
    05:00 +12°C° 0 mm 3 mps 752 mmHg 79%
    06:00 +12°C° 0 mm 3 mps 752 mmHg 80%
    07:00 +12°C° 0 mm 3 mps 752 mmHg 80%
    08:00 +12°C° 0 mm 3 mps 752 mmHg 79%
    09:00 +13°C° 0 mm 3 mps 752 mmHg 77%
    10:00 +13°C° 0 mm 4 mps 752 mmHg 76%
    11:00 +14°C° 0 mm 4 mps 752 mmHg 72%
    12:00 +15°C° 0 mm 4 mps 752 mmHg 68%
    13:00 +18°C° 0 mm 4 mps 752 mmHg 63%
    14:00 +17°C° 0 mm 3 mps 751 mmHg 66%
    15:00 +17°C° 0 mm 3 mps 751 mmHg 69%
    16:00 +16°C° 0 mm 2 mps 751 mmHg 72%
    17:00 +14°C° 0 mm 3 mps 751 mmHg 75%
    18:00 +14°C° 0 mm 3 mps 750 mmHg 78%
    19:00 +13°C° 0 mm 3 mps 750 mmHg 81%
    20:00 +12°C° 0 mm 3 mps 750 mmHg 83%
    21:00 +12°C° 0 mm 3 mps 750 mmHg 85%
    22:00 +12°C° 0 mm 3 mps 750 mmHg 86%
    23:00 +12°C° 0 mm 3 mps 749 mmHg 88%

    20 October, Sunday

    Time Temperature Precipitation Wind Pressure Humidity
    00:00 +12°C° 0 mm 3 mps 749 mmHg 89%
    01:00 +11°C° 0 mm 3 mps 749 mmHg 90%
    02:00 +11°C° 0 mm 3 mps 748 mmHg 91%
    03:00 +11°C° 0 mm 3 mps 748 mmHg 91%
    04:00 +11°C° 0 mm 3 mps 748 mmHg 91%
    05:00 +11°C° 0 mm 3 mps 747 mmHg 91%
    06:00 +11°C° 0 mm 4 mps 747 mmHg 91%
    07:00 +11°C° 0 mm 4 mps 747 mmHg 91%
    08:00 +13°C° 0 mm 4 mps 746 mmHg 84%
    09:00 +14°C° 0 mm 5 mps 746 mmHg 77%
    10:00 +16°C° 0 mm 5 mps 745 mmHg 71%
    11:00 +17°C° 0 mm 5 mps 745 mmHg 67%
    12:00 +17°C° 0 mm 5 mps 745 mmHg 64%
    13:00 +19°C° 0 mm 5 mps 745 mmHg 61%
    14:00 +17°C° 0 mm 5 mps 745 mmHg 65%
    15:00 +17°C° 0 mm 4 mps 745 mmHg 69%
    16:00 +17°C° 0 mm 4 mps 745 mmHg 73%
    17:00 +15°C° 0 mm 4 mps 745 mmHg 76%
    18:00 +14°C° 0 mm 3 mps 746 mmHg 79%
    19:00 +13°C° 0 mm 3 mps 746 mmHg 82%
    20:00 +13°C° 0 mm 3 mps 747 mmHg 82%
    21:00 +13°C° 0 mm 2 mps 747 mmHg 83%
    22:00 +13°C° 0 mm 2 mps 748 mmHg 83%
    23:00 +12°C° 0 mm 2 mps 748 mmHg 84%
    Show more